SCOUT X-4 DEB, 732

Orbit data source: Space-Track

SCOUT X-4 DEB, 732 is space debris in LEO originally from a launch on Thu, 19 Dec 1963 UTC launched from the Air Force Western Test Range (AFWTR). Debris objects in space refer to the collection of defunct objects orbiting the Earth. Examples of debris include non-operational satellites, rocket bodies, and fragments generated from explosions, collisions, or faulty payload assembly.

Loading next visibility...
Identifier
732, 1963-053H
Orbit
LEO
Country
Flag of USUS
Related business
Manufacturer
Unknown
Mission
Spacecraft
Bus & Motor
Unknown
Mass
Unknown
Launch date (UTC)
1963-12-19 (62 years ago)
Launch vehicle
Unknown
Launch site
Air Force Western Test Range (AFWTR)
Object type
Payload
Rocket body
Debris
Shape & HBR
Unknown shape, 0.1 m
Radar Cross Section
Small (<0.1 m²)

Expand to show TLE details & history
Last TLE update: 9 hours ago

TLE from 9 hours ago
0 SCOUT X-4 DEB
1   732U 63053H   26037.00812000  .00021786  00000-0  62304-2 0  9999
2   732  78.5498  30.1581 0410681  34.8184 327.9118 14.05428769956727
Epoch: 2026-02-06T00:11Z
TLE epoch observation values (Epoch: 2026-02-06T00:11:41.567Z)
Latitude
-0.00009°
Longitude
-108.91728°
Altitude
629.075 km
Speed
7.672 km/s
True Right ascension
02h 00m 37s
True Declination
0° 00' 00"
Sunlit
Object was in daylight at epoch
Visualization orbit readout
Latitude
Unknown
Longitude
Unknown
Altitude
Unknown
Speed
Unknown
Apparent Right ascension
Unknown
Apparent Declination
Unknown
Sunlit
N/A
Visualization observer readout
Local Sidereal Time
11:34:56
Azimuth
Unknown
Elevation
Unknown
Doppler factor
Unknown
Orbital elements
Apogee altitude
1,170.143 km
Perigee altitude
574.613 km
Semi-major axis
7,250.515 km
Eccentricity
0.04107
Inclination
78.5498°
RAAN
30.1581°
Arg. of periapsis
34.8184°
True anomaly
325.29928°
Mean anomaly
327.9118°
Eccentric anomaly
326.61709°
Mean motion
3.51552 °/min
Orbital period
102.4 mins
BSTAR
0.0062304
Loading maneuver chart data...
Computing Atmospheric mass density...
Loading historical data...
Loading historical data...
Loading historical data...
Loading historical data...
Loading historical data...
Loading historical data...
Loading historical data...

Documentation

Showing up to 5 results
|